| time (UTC) | temp C | wind direction | speed KPH | gust KPH | rain 1hr cm | rain 24hr cm | rain mn cm | humidity % | barometer mb |
| 20260502183449 | 11 | 301 | 0.0 | 0.0 | 0.13 | 1.37 | 1.37 | 94 | 1010.0 |
| 20260502183312 | 11 | 301 | 0.0 | 0.0 | 0.13 | 1.37 | 1.37 | 94 | 1010.0 |
| 20260502182444 | 11 | 301 | 0.0 | 0.0 | 0.13 | 1.37 | 1.37 | 94 | 1010.0 |
| 20260502181944 | 11 | 301 | 0.0 | 0.0 | 0.15 | 1.37 | 1.37 | 94 | 1010.0 |
| 20260502181439 | 11 | 301 | 0.0 | 0.0 | 0.13 | 1.35 | 1.35 | 94 | 1009.9 |
| 20260502180939 | 11 | 301 | 0.0 | 0.0 | 0.15 | 1.35 | 1.35 | 94 | 1009.9 |
| 20260502180438 | 11 | 302 | 0.0 | 0.0 | 0.15 | 1.32 | 1.32 | 94 | 1009.9 |
| 20260502170421 | 11 | 302 | 0.0 | 0.0 | 0.18 | 1.17 | 1.17 | 93 | 1010.7 |
| 20260502163910 | 11 | 302 | 0.0 | 0.0 | 0.23 | 1.12 | 1.12 | 94 | 1010.9 |
| 20260502163411 | 11 | 302 | 0.0 | 0.0 | 0.23 | 1.09 | 1.09 | 94 | 1010.9 |
| 20260502162909 | 11 | 302 | 0.0 | 0.0 | 0.23 | 1.09 | 1.09 | 94 | 1011.0 |
| 20260502162405 | 11 | 302 | 0.0 | 0.0 | 0.25 | 1.09 | 1.07 | 93 | 1011.1 |
| 20260502161906 | 11 | 302 | 0.0 | 0.0 | 0.25 | 1.07 | 1.04 | 93 | 1011.1 |
| 20260502161408 | 11 | 302 | 0.0 | 0.0 | 0.25 | 1.04 | 1.04 | 93 | 1011.2 |
| 20260502160908 | 11 | 302 | 0.0 | 0.0 | 0.28 | 1.02 | 1.02 | 93 | 1011.1 |
| 20260502160404 | 11 | 302 | 0.0 | 0.0 | 0.28 | 0.99 | 0.99 | 93 | 1011.2 |
| 20260502151859 | 11 | 123 | 0.0 | 0.0 | 0.30 | 0.79 | 0.79 | 93 | 1011.6 |
| 20260502151354 | 11 | 123 | 0.0 | 0.0 | 0.30 | 0.79 | 0.76 | 93 | 1011.6 |
| 20260502150856 | 11 | 69 | 0.0 | 0.0 | 0.28 | 0.74 | 0.74 | 93 | 1011.7 |
| 20260502150355 | 11 | 80 | 0.0 | 0.0 | 0.30 | 0.71 | 0.71 | 92 | 1011.7 |
| 20260502130325 | 13 | 24 | 0.0 | 0.0 | 0.00 | 0.03 | 0.03 | 86 | 1012.3 |
| 20260502123320 | 14 | 61 | 0.0 | 0.0 | 0.00 | 0.03 | 0.03 | 87 | 1012.6 |
| 20260502122821 | 14 | 174 | 0.0 | 0.0 | 0.03 | 0.03 | 0.03 | 88 | 1012.6 |
| 20260502122323 | 14 | 174 | 0.0 | 0.0 | 0.03 | 0.03 | 0.03 | 88 | 1012.6 |
| 20260502122126 | 14 | 174 | 0.0 | 0.0 | 0.03 | 0.03 | 0.03 | 89 | 1012.6 |
| 20260502121312 | 14 | 174 | 0.0 | 0.0 | 0.03 | 0.03 | 0.03 | 89 | 1012.7 |
| 20260502120813 | 14 | 227 | 0.0 | 0.0 | 0.03 | 0.03 | 0.03 | 89 | 1012.7 |
| 20260502120312 | 14 | 227 | 0.0 | 0.0 | 0.03 | 0.03 | 0.03 | 89 | 1012.9 |
| 20260502120108 | 14 | 227 | 0.0 | 0.0 | 0.03 | 0.03 | 0.03 | 89 | 1013.0 |
| 20260502115314 | 14 | 168 | 0.0 | 0.0 | 0.03 | 0.03 | 0.03 | 90 | 1013.1 |
| 20260502114810 | 14 | 168 | 0.0 | 0.0 | 0.03 | 0.03 | 0.03 | 89 | 1013.1 |
| 20260502114311 | 13 | 168 | 0.0 | 0.0 | 0.03 | 0.03 | 0.03 | 89 | 1013.2 |
| 20260502114124 | 13 | 168 | 0.0 | 0.0 | 0.03 | 0.03 | 0.03 | 89 | 1013.2 |
| 20260502113312 | 13 | 168 | 0.0 | 0.0 | 0.03 | 0.03 | 0.03 | 89 | 1013.3 |
| 20260502112942 | 13 | 168 | 0.0 | 0.0 | 0.00 | 0.00 | 0.00 | 88 | 1013.6 |
| 20260502112908 | 13 | 168 | 0.0 | 0.0 | 0.00 | 0.00 | 0.00 | 89 | 1013.5 |
| 20260502111809 | 13 | 190 | 0.0 | 0.0 | 0.00 | 0.00 | 0.00 | 89 | 1013.6 |
| 20260502111309 | 13 | 189 | 0.0 | 0.0 | 0.00 | 0.00 | 0.00 | 89 | 1013.7 |
| 20260502110809 | 13 | 190 | 0.0 | 0.0 | 0.00 | 0.00 | 0.00 | 89 | 1013.8 |
| 20260502110651 | 13 | 188 | 0.0 | 0.0 | 0.00 | 0.00 | 0.00 | 88 | 1013.9 |
| 20260502105814 | 13 | 188 | 0.0 | 0.0 | 0.00 | 0.00 | 0.00 | 88 | 1014.0 |
| 20260502105626 | 13 | 241 | 0.0 | 0.0 | 0.00 | 0.00 | 0.00 | 88 | 1014.1 |
| 20260502104811 | 13 | 192 | 0.0 | 0.0 | 0.00 | 0.00 | 0.00 | 88 | 1014.2 |
| 20260502104310 | 13 | 189 | 0.0 | 0.0 | 0.00 | 0.00 | 0.00 | 87 | 1014.2 |
| 20260502104127 | 13 | 202 | 0.0 | 0.0 | 0.00 | 0.00 | 0.00 | 87 | 1014.3 |
| 20260502103308 | 13 | 188 | 0.0 | 0.0 | 0.00 | 0.00 | 0.00 | 87 | 1014.3 |
| 20260502102808 | 13 | 190 | 0.0 | 0.0 | 0.00 | 0.00 | 0.00 | 87 | 1014.4 |
| 20260502102615 | 13 | 242 | 0.0 | 0.0 | 0.00 | 0.00 | 0.00 | 87 | 1014.5 |
| 20260502101809 | 13 | 238 | 0.0 | 0.0 | 0.00 | 0.00 | 0.00 | 88 | 1014.7 |
| 20260502101311 | 13 | 129 | 0.0 | 0.0 | 0.00 | 0.00 | 0.00 | 88 | 1014.7 |
| 20260502100810 | 13 | 146 | 0.0 | 0.0 | 0.00 | 0.00 | 0.00 | 89 | 1014.7 |
| 20260502100308 | 12 | 157 | 0.0 | 0.0 | 0.00 | 0.00 | 0.00 | 89 | 1014.8 |
| 20260502091306 | 12 | 81 | 0.0 | 0.0 | 0.00 | 0.00 | 0.00 | 92 | 1014.9 |
| 20260502090802 | 12 | 81 | 0.0 | 0.0 | 0.00 | 0.00 | 0.00 | 92 | 1014.8 |
| 20260502090306 | 12 | 169 | 0.0 | 0.0 | 0.00 | 0.00 | 0.00 | 93 | 1014.9 |
| 20260502071220 | 11 | 149 | 0.0 | 0.0 | 0.00 | 0.00 | 0.00 | 95 | 1015.7 |
| 20260502070717 | 11 | 179 | 0.0 | 0.0 | 0.00 | 0.00 | 0.00 | 95 | 1015.8 |
| 20260502070217 | 11 | 169 | 0.0 | 0.0 | 0.00 | 0.00 | 0.00 | 95 | 1015.7 |
| 20260502065719 | 11 | 167 | 0.0 | 0.0 | 0.00 | 0.00 | 0.00 | 95 | 1015.8 |
| 20260502065217 | 11 | 166 | 0.0 | 0.0 | 0.00 | 0.00 | 0.00 | 95 | 1015.8 |
| 20260502064714 | 11 | 165 | 0.0 | 0.0 | 0.00 | 0.00 | 0.00 | 95 | 1015.8 |
| 20260502064215 | 11 | 175 | 0.0 | 0.0 | 0.00 | 0.00 | 0.00 | 95 | 1015.9 |
| 20260502063720 | 11 | 170 | 0.0 | 0.0 | 0.00 | 0.00 | 0.00 | 95 | 1015.9 |
| 20260502063215 | 10 | 115 | 0.0 | 0.0 | 0.00 | 0.00 | 0.00 | 95 | 1015.8 |
| 20260502062715 | 10 | 134 | 0.0 | 0.0 | 0.00 | 0.00 | 0.00 | 95 | 1015.8 |
| 20260502062213 | 10 | 133 | 0.0 | 0.0 | 0.00 | 0.00 | 0.00 | 95 | 1015.9 |
| 20260502061714 | 10 | 47 | 0.0 | 0.0 | 0.00 | 0.00 | 0.00 | 95 | 1015.9 |
| 20260502061210 | 10 | 115 | 0.0 | 0.0 | 0.00 | 0.00 | 0.00 | 95 | 1015.9 |
| 20260502060714 | 10 | 113 | 0.0 | 0.0 | 0.00 | 0.00 | 0.00 | 95 | 1015.9 |
| 20260502060207 | 10 | 65 | 0.0 | 0.0 | 0.00 | 0.00 | 0.00 | 95 | 1015.9 |
| 20260502055847 | 10 | 167 | 0.0 | 0.0 | 0.00 | 0.00 | 0.00 | 95 | 1015.9 |
| 20260502055803 | 10 | 164 | 0.0 | 0.0 | 0.00 | 0.00 | 0.00 | 95 | 1015.9 |
| 20260502054705 | 10 | 165 | 0.0 | 0.0 | 0.00 | 0.00 | 0.00 | 95 | 1015.9 |
| 20260502054205 | 10 | 165 | 0.0 | 0.0 | 0.00 | 0.00 | 0.00 | 95 | 1016.0 |
| 20260502053703 | 10 | 164 | 0.0 | 0.0 | 0.00 | 0.00 | 0.00 | 95 | 1016.0 |
| 20260502053510 | 10 | 164 | 0.0 | 0.0 | 0.00 | 0.00 | 0.00 | 95 | 1016.0 |
| 20260502052704 | 10 | 160 | 0.0 | 0.0 | 0.00 | 0.00 | 0.00 | 95 | 1016.2 |
| 20260502052516 | 10 | 151 | 0.0 | 0.0 | 0.00 | 0.00 | 0.00 | 95 | 1016.2 |
| 20260502052022 | 10 | 153 | 0.0 | 0.0 | 0.00 | 0.00 | 0.00 | 95 | 1016.2 |
| 20260502051206 | 10 | 114 | 0.0 | 0.0 | 0.00 | 0.00 | 0.00 | 95 | 1016.3 |
| 20260502051029 | 10 | 173 | 0.0 | 0.0 | 0.00 | 0.00 | 0.00 | 95 | 1016.3 |
| 20260502050201 | 10 | 159 | 0.0 | 0.0 | 0.00 | 0.00 | 0.00 | 95 | 1016.4 |
| 20260502045659 | 10 | 121 | 0.0 | 0.0 | 0.00 | 0.00 | 0.00 | 95 | 1016.4 |
| 20260502045157 | 10 | 187 | 0.0 | 0.0 | 0.00 | 0.00 | 0.00 | 95 | 1016.4 |
| 20260502044654 | 10 | 174 | 0.0 | 0.0 | 0.00 | 0.00 | 0.00 | 95 | 1016.4 |
| 20260502044150 | 10 | 276 | 0.0 | 0.0 | 0.00 | 0.00 | 0.00 | 95 | 1016.5 |
| 20260502043651 | 10 | 111 | 0.0 | 0.0 | 0.00 | 0.00 | 0.00 | 95 | 1016.5 |
| 20260502043151 | 10 | 83 | 0.0 | 0.0 | 0.00 | 0.00 | 0.00 | 95 | 1016.5 |
| 20260502042651 | 9 | 140 | 0.0 | 0.0 | 0.00 | 0.00 | 0.00 | 95 | 1016.6 |
| 20260502042149 | 9 | 140 | 0.0 | 0.0 | 0.00 | 0.00 | 0.00 | 95 | 1016.5 |
| 20260502041649 | 8 | 223 | 0.0 | 0.0 | 0.00 | 0.00 | 0.00 | 95 | 1016.6 |
| 20260502041146 | 8 | 223 | 0.0 | 0.0 | 0.00 | 0.00 | 0.00 | 95 | 1016.7 |
| 20260502040645 | 8 | 223 | 0.0 | 0.0 | 0.00 | 0.00 | 0.00 | 94 | 1016.7 |
| 20260502040144 | 8 | 223 | 0.0 | 0.0 | 0.00 | 0.00 | 0.00 | 94 | 1016.8 |
| 20260502035955 | 8 | 223 | 0.0 | 0.0 | 0.00 | 0.00 | 0.00 | 94 | 1016.8 |
| 20260502035143 | 8 | 223 | 0.0 | 0.0 | 0.00 | 0.00 | 0.00 | 94 | 1016.8 |
| 20260502034644 | 8 | 223 | 0.0 | 0.0 | 0.00 | 0.00 | 0.00 | 94 | 1016.8 |
| 20260502034144 | 8 | 223 | 0.0 | 0.0 | 0.00 | 0.00 | 0.00 | 95 | 1016.9 |
| 20260502033645 | 9 | 223 | 0.0 | 0.0 | 0.00 | 0.00 | 0.00 | 95 | 1016.9 |
| 20260502033322 | 8 | 208 | 0.0 | 0.0 | 0.00 | 0.00 | 0.00 | 95 | 1017.0 |
| 20260502033239 | 8 | 219 | 0.0 | 0.0 | 0.00 | 0.00 | 0.00 | 95 | 1016.9 |
| 20260502032138 | 8 | 208 | 0.0 | 0.0 | 0.00 | 0.00 | 0.00 | 95 | 1016.9 |
| 20260502031638 | 7 | 208 | 0.0 | 0.0 | 0.00 | 0.00 | 0.00 | 95 | 1016.9 |
| 20260502031137 | 7 | 207 | 0.0 | 0.0 | 0.00 | 0.00 | 0.00 | 94 | 1016.9 |
| 20260502030636 | 7 | 207 | 0.0 | 0.0 | 0.00 | 0.00 | 0.00 | 94 | 1017.0 |
| 20260502030143 | 7 | 207 | 0.0 | 0.0 | 0.00 | 0.00 | 0.00 | 94 | 1017.0 |
| 20260502025640 | 7 | 207 | 0.0 | 0.0 | 0.00 | 0.00 | 0.00 | 94 | 1017.0 |
| 20260502025138 | 7 | 207 | 0.0 | 0.0 | 0.00 | 0.00 | 0.00 | 94 | 1017.0 |
| 20260502024637 | 7 | 207 | 0.0 | 0.0 | 0.00 | 0.00 | 0.00 | 94 | 1017.0 |
| 20260502024137 | 7 | 207 | 0.0 | 0.0 | 0.00 | 0.00 | 0.00 | 94 | 1017.1 |
| 20260502023636 | 7 | 207 | 0.0 | 0.0 | 0.00 | 0.00 | 0.00 | 94 | 1017.0 |
| 20260502023138 | 7 | 207 | 0.0 | 0.0 | 0.00 | 0.00 | 0.00 | 94 | 1017.0 |
| 20260502022639 | 7 | 207 | 0.0 | 0.0 | 0.00 | 0.00 | 0.00 | 94 | 1017.1 |
| 20260502022137 | 7 | 207 | 0.0 | 0.0 | 0.00 | 0.00 | 0.00 | 94 | 1017.2 |
| 20260502021636 | 7 | 207 | 0.0 | 0.0 | 0.00 | 0.00 | 0.00 | 94 | 1017.2 |
| 20260502021137 | 7 | 207 | 0.0 | 0.0 | 0.00 | 0.00 | 0.00 | 94 | 1017.3 |
| 20260502020640 | 7 | 207 | 0.0 | 0.0 | 0.00 | 0.00 | 0.00 | 93 | 1017.5 |
| 20260502020139 | 7 | 207 | 0.0 | 0.0 | 0.00 | 0.00 | 0.00 | 93 | 1017.5 |
| 20260502015641 | 7 | 207 | 0.0 | 0.0 | 0.00 | 0.00 | 0.00 | 93 | 1017.7 |
| 20260502015447 | 7 | 207 | 0.0 | 0.0 | 0.00 | 0.00 | 0.00 | 93 | 1017.7 |
| 20260502014637 | 7 | 207 | 0.0 | 0.0 | 0.00 | 0.00 | 0.00 | 93 | 1017.7 |
| 20260502014137 | 7 | 207 | 0.0 | 0.0 | 0.00 | 0.00 | 0.00 | 93 | 1017.7 |
| 20260502013948 | 7 | 207 | 0.0 | 0.0 | 0.00 | 0.00 | 0.00 | 93 | 1017.7 |
| 20260502013133 | 7 | 207 | 0.0 | 0.0 | 0.00 | 0.00 | 0.00 | 92 | 1017.8 |
| 20260502012942 | 7 | 207 | 0.0 | 0.0 | 0.00 | 0.00 | 0.00 | 92 | 1017.9 |
| 20260502012132 | 7 | 207 | 0.0 | 0.0 | 0.00 | 0.00 | 0.00 | 93 | 1017.9 |
| 20260502011948 | 8 | 207 | 0.0 | 0.0 | 0.00 | 0.00 | 0.00 | 93 | 1018.0 |
| 20260502011450 | 8 | 207 | 0.0 | 0.0 | 0.00 | 0.00 | 0.00 | 93 | 1018.0 |
| 20260502010631 | 8 | 207 | 0.0 | 0.0 | 0.00 | 0.00 | 0.00 | 93 | 1018.1 |
| 20260502010135 | 8 | 207 | 0.0 | 0.0 | 0.00 | 0.00 | 0.00 | 93 | 1018.1 |
| 20260502005636 | 8 | 207 | 0.0 | 0.0 | 0.00 | 0.00 | 0.00 | 93 | 1018.2 |
| 20260502005135 | 8 | 207 | 0.0 | 0.0 | 0.00 | 0.00 | 0.00 | 93 | 1018.2 |
| 20260502004633 | 8 | 207 | 0.0 | 0.0 | 0.00 | 0.00 | 0.00 | 93 | 1018.3 |
| 20260502004130 | 8 | 207 | 0.0 | 0.0 | 0.00 | 0.00 | 0.00 | 94 | 1018.5 |
| 20260502003625 | 8 | 207 | 0.0 | 0.0 | 0.00 | 0.00 | 0.00 | 94 | 1018.5 |
| 20260502003127 | 8 | 207 | 0.0 | 0.0 | 0.00 | 0.00 | 0.00 | 94 | 1018.5 |
| 20260502002622 | 8 | 207 | 0.0 | 0.0 | 0.00 | 0.00 | 0.00 | 93 | 1018.5 |
| 20260502002442 | 8 | 207 | 0.0 | 0.0 | 0.00 | 0.00 | 0.00 | 93 | 1018.5 |
| 20260502001931 | 8 | 207 | 0.0 | 0.0 | 0.00 | 0.00 | 0.00 | 93 | 1018.6 |
| 20260502001119 | 8 | 207 | 0.0 | 0.0 | 0.00 | 0.00 | 0.00 | 93 | 1018.6 |
| 20260502000617 | 7 | 207 | 0.0 | 0.0 | 0.00 | 0.00 | 0.00 | 93 | 1018.7 |
| 20260502000118 | 7 | 207 | 0.0 | 0.0 | 0.00 | 0.00 | 0.00 | 93 | 1018.7 |
| 20260501235618 | 7 | 207 | 0.0 | 0.0 | 0.00 | 0.00 | 0.00 | 92 | 1018.8 |
| 20260501235117 | 7 | 207 | 0.0 | 0.0 | 0.00 | 0.00 | 0.00 | 92 | 1018.8 |
| 20260501234617 | 7 | 207 | 0.0 | 0.0 | 0.00 | 0.00 | 0.00 | 92 | 1018.8 |
| 20260501234554 | 7 | 207 | 0.0 | 0.0 | 0.00 | 0.00 | 0.00 | 91 | 1018.8 |
| 20260501234550 | 7 | 207 | 0.0 | 0.0 | 0.00 | 0.00 | 0.00 | 91 | 1018.8 |
| 20260501233116 | 7 | 207 | 0.0 | 0.0 | 0.00 | 0.00 | 0.00 | 91 | 1018.9 |
| 20260501232615 | 7 | 207 | 0.0 | 0.0 | 0.00 | 0.00 | 0.00 | 91 | 1018.8 |
| 20260501232422 | 7 | 207 | 0.0 | 0.0 | 0.00 | 0.00 | 0.00 | 91 | 1018.8 |
| 20260501231608 | 7 | 207 | 0.0 | 0.0 | 0.00 | 0.00 | 0.00 | 91 | 1018.9 |
| 20260501231105 | 8 | 207 | 0.0 | 0.0 | 0.00 | 0.00 | 0.00 | 91 | 1018.8 |
| 20260501230609 | 8 | 207 | 0.0 | 0.0 | 0.00 | 0.00 | 0.00 | 91 | 1018.8 |
| 20260501225603 | 8 | 207 | 0.0 | 0.0 | 0.00 | 0.00 | 0.00 | 91 | 1018.9 |
| 20260501225104 | 8 | 207 | 0.0 | 0.0 | 0.00 | 0.00 | 0.00 | 90 | 1019.0 |
| 20260501224604 | 8 | 207 | 0.0 | 0.0 | 0.00 | 0.00 | 0.00 | 90 | 1019.0 |
| 20260501224103 | 8 | 207 | 0.0 | 0.0 | 0.00 | 0.00 | 0.00 | 90 | 1019.0 |
| 20260501223556 | 8 | 207 | 0.0 | 0.0 | 0.00 | 0.00 | 0.00 | 90 | 1019.1 |
| 20260501223052 | 9 | 207 | 0.0 | 0.0 | 0.00 | 0.00 | 0.00 | 90 | 1019.1 |
| 20260501222553 | 9 | 207 | 0.0 | 0.0 | 0.00 | 0.00 | 0.00 | 90 | 1019.2 |
| 20260501222413 | 9 | 207 | 0.0 | 0.0 | 0.00 | 0.00 | 0.00 | 90 | 1019.2 |
| 20260501221552 | 9 | 207 | 0.0 | 0.0 | 0.00 | 0.00 | 0.00 | 90 | 1019.3 |
| 20260501221049 | 9 | 207 | 0.0 | 0.0 | 0.00 | 0.00 | 0.00 | 90 | 1019.3 |
| 20260501220549 | 10 | 207 | 0.0 | 0.0 | 0.00 | 0.00 | 0.00 | 90 | 1019.3 |
| 20260501220050 | 10 | 207 | 0.0 | 0.0 | 0.00 | 0.00 | 0.00 | 90 | 1019.2 |
| 20260501215547 | 10 | 207 | 0.0 | 0.0 | 0.00 | 0.00 | 0.00 | 89 | 1019.2 |
| 20260501215044 | 10 | 207 | 0.0 | 0.0 | 0.00 | 0.00 | 0.00 | 89 | 1019.2 |
| 20260501214543 | 10 | 207 | 0.0 | 0.0 | 0.00 | 0.00 | 0.00 | 89 | 1019.3 |
| 20260501214042 | 10 | 207 | 0.0 | 0.0 | 0.00 | 0.00 | 0.00 | 89 | 1019.3 |
| 20260501213543 | 10 | 207 | 0.0 | 0.0 | 0.00 | 0.00 | 0.00 | 89 | 1019.3 |
| 20260501213039 | 11 | 207 | 0.0 | 0.0 | 0.00 | 0.00 | 0.00 | 89 | 1019.3 |
| 20260501212540 | 11 | 207 | 0.0 | 0.0 | 0.00 | 0.00 | 0.00 | 89 | 1019.4 |
| 20260501212037 | 11 | 207 | 0.0 | 0.0 | 0.00 | 0.00 | 0.00 | 90 | 1019.5 |
| 20260501211535 | 11 | 206 | 0.0 | 0.0 | 0.00 | 0.00 | 0.00 | 89 | 1019.4 |
| 20260501211355 | 11 | 196 | 0.0 | 0.0 | 0.00 | 0.00 | 0.00 | 90 | 1019.5 |
| 20260501210527 | 11 | 225 | 0.0 | 0.0 | 0.00 | 0.00 | 0.00 | 89 | 1019.5 |
| 20260501210021 | 11 | 236 | 0.0 | 0.0 | 0.00 | 0.00 | 0.00 | 89 | 1019.5 |
| 20260501205514 | 11 | 244 | 0.0 | 0.0 | 0.00 | 0.00 | 0.00 | 89 | 1019.4 |
| 20260501205013 | 11 | 248 | 0.0 | 0.0 | 0.00 | 0.00 | 0.00 | 89 | 1019.4 |
| 20260501204511 | 11 | 248 | 0.0 | 0.0 | 0.00 | 0.00 | 0.00 | 88 | 1019.4 |
| 20260501204011 | 12 | 248 | 0.0 | 0.0 | 0.00 | 0.00 | 0.00 | 88 | 1019.3 |
| 20260501203510 | 12 | 248 | 0.0 | 0.0 | 0.00 | 0.00 | 0.00 | 88 | 1019.3 |
| 20260501203011 | 12 | 248 | 0.0 | 0.0 | 0.00 | 0.00 | 0.00 | 88 | 1019.3 |
| 20260501202511 | 12 | 248 | 0.0 | 0.0 | 0.00 | 0.00 | 0.00 | 88 | 1019.2 |
| 20260501202008 | 12 | 248 | 0.0 | 0.0 | 0.00 | 0.00 | 0.00 | 88 | 1019.2 |
| 20260501201506 | 12 | 248 | 0.0 | 0.0 | 0.00 | 0.00 | 0.00 | 88 | 1019.2 |
| 20260501201004 | 12 | 248 | 0.0 | 0.0 | 0.00 | 0.00 | 0.00 | 88 | 1019.2 |
| 20260501200505 | 12 | 248 | 0.0 | 0.0 | 0.00 | 0.00 | 0.00 | 87 | 1019.1 |
| 20260501200004 | 12 | 248 | 0.0 | 0.0 | 0.00 | 0.00 | 0.00 | 88 | 1019.1 |
| 20260501195505 | 12 | 249 | 0.0 | 0.0 | 0.00 | 0.00 | 0.00 | 87 | 1019.0 |
| 20260501195003 | 12 | 248 | 0.0 | 0.0 | 0.00 | 0.00 | 0.00 | 87 | 1019.0 |
| 20260501194500 | 12 | 246 | 0.0 | 0.0 | 0.00 | 0.00 | 0.00 | 87 | 1018.9 |
| 20260501194001 | 12 | 245 | 0.0 | 0.0 | 0.00 | 0.00 | 0.00 | 86 | 1018.8 |
| 20260501193455 | 12 | 246 | 0.0 | 0.0 | 0.00 | 0.00 | 0.00 | 86 | 1018.8 |
| 20260501193308 | 12 | 246 | 0.0 | 0.0 | 0.00 | 0.00 | 0.00 | 86 | 1018.7 |
| 20260501192806 | 12 | 250 | 0.0 | 0.0 | 0.00 | 0.00 | 0.00 | 86 | 1018.7 |
| 20260501191952 | 12 | 256 | 0.0 | 0.0 | 0.00 | 0.00 | 0.00 | 85 | 1018.7 |
| 20260501191450 | 12 | 202 | 0.0 | 0.0 | 0.00 | 0.00 | 0.00 | 85 | 1018.7 |
| 20260501190947 | 13 | 245 | 0.0 | 0.0 | 0.00 | 0.00 | 0.00 | 85 | 1018.7 |
| 20260501190448 | 13 | 239 | 0.0 | 0.0 | 0.00 | 0.00 | 0.00 | 85 | 1018.6 |
| 20260501185949 | 13 | 250 | 0.0 | 0.0 | 0.00 | 0.00 | 0.00 | 85 | 1018.6 |
| 20260501185803 | 13 | 238 | 0.0 | 0.0 | 0.00 | 0.00 | 0.00 | 85 | 1018.5 |
| 20260501184949 | 13 | 197 | 0.0 | 0.0 | 0.00 | 0.00 | 0.00 | 84 | 1018.5 |
| 20260501184810 | 13 | 248 | 0.0 | 0.0 | 0.00 | 0.00 | 0.00 | 84 | 1018.5 |
| 20260501183949 | 13 | 246 | 0.0 | 0.0 | 0.00 | 0.00 | 0.00 | 84 | 1018.5 |